This is the latest recevied weather packets stored in our database for station/object KJ5IIV. If no packets are shown the sender has not sent any weather packets the latest 10 day(s).
| Time | Temp. | Humidity | Pressure | Rain* | Wind** | Luminosity | Snow |
|---|---|---|---|---|---|---|---|
| 1778116903 | 13.33° C | 89% | 1014.4 hPa | 0 mm | - | 0 W/m² | - |
| 1778116601 | 13.33° C | 88% | 1014 hPa | 0 mm | - | 0 W/m² | - |
| 1778116297 | 13.33° C | 88% | 1014 hPa | 0 mm | - | 0 W/m² | - |
| 1778115992 | 13.33° C | 87% | 1013.9 hPa | 0 mm | - | 1 W/m² | - |
| 1778115688 | 13.89° C | 87% | 1013.9 hPa | 0 mm | - | 3 W/m² | - |
| 1778115386 | 13.89° C | 88% | 1013.8 hPa | 0 mm | - | 4 W/m² | - |
| 1778115082 | 13.89° C | 88% | 1013.9 hPa | 0 mm | - | 3 W/m² | - |
| 1778114779 | 13.89° C | 87% | 1013.8 hPa | 0 mm | - | 6 W/m² | - |
| 1778114476 | 13.89° C | 88% | 1013.8 hPa | 0 mm | - | 6 W/m² | - |
| 1778114172 | 13.89° C | 87% | 1013.7 hPa | 0 mm | - | 7 W/m² | - |
| 1778113867 | 13.89° C | 88% | 1013.7 hPa | 0 mm | - | 10 W/m² | - |
| 1778113564 | 13.89° C | 87% | 1014.2 hPa | 0 mm | - | 12 W/m² | - |
| 1778113260 | 14.44° C | 88% | 1013.9 hPa | 0 mm | - | 13 W/m² | - |
| 1778112957 | 14.44° C | 88% | 1013.8 hPa | 0 mm | - | 13 W/m² | - |
| 1778112654 | 14.44° C | 88% | 1013.4 hPa | 0 mm | - | 22 W/m² | - |
| 1778112350 | 14.44° C | 89% | 1013.3 hPa | 0 mm | - | 26 W/m² | - |
| 1778112046 | 14.44° C | 89% | 1013.4 hPa | 0 mm | - | 26 W/m² | - |
| 1778111744 | 14.44° C | 89% | 1013.6 hPa | 0 mm | - | 27 W/m² | - |
| 1778111439 | 14.44° C | 90% | 1013.4 hPa | 0 mm | - | 26 W/m² | - |
| 1778111137 | 14.44° C | 89% | 1013.2 hPa | 0 mm | - | 36 W/m² | - |
| 1778110833 | 15° C | 89% | 1013.4 hPa | 0 mm | - | 27 W/m² | - |
| 1778110531 | 15° C | 89% | 1013.4 hPa | 0 mm | - | 29 W/m² | - |
| 1778110227 | 14.44° C | 89% | 1013.6 hPa | 0 mm | - | 30 W/m² | - |
| 1778109923 | 15° C | 90% | 1013.4 hPa | 0 mm | - | 30 W/m² | - |
| 1778109619 | 15° C | 90% | 1013.5 hPa | 0 mm | - | 32 W/m² | - |
* Rain latest hour (hover to see other rain measurements)
** Current wind speed in m/s (hover to see current wind gust speed)